Tracking 25378 objects as of 22-Jan-2022
HD Live streaming from Space Station
objects crossing your sky now

STARLINK-1648

Track STARLINK-1648 now!
10-day predictions
STARLINK-1648 is classified as:


NORAD ID: 46533
Int'l Code: 2020-070B
Perigee: 553.7 km
Apogee: 555.1 km
Inclination: 53.1 °
Period: 95.6 minutes
Semi major axis: 6925 km
RCS: Unknown
Launch date: October 6, 2020
Source: United States (US)
Launch site: AIR FORCE EASTERN TEST RANGE (AFETR)
aabbcc
Your satellite tracking list
Your tracking list is empty




NASA's NSSDC Master Catalog

Two Line Element Set (TLE):
1 46533U 20070B   22021.62962407 -.00001374  00000-0 -73389-4 0  9994
2 46533  53.0506 106.5641 0001041  79.4537 280.6570 15.06388596 72206
Source of the keplerian elements: AFSPC